Regional Weather Roundup
Issued by NWS

Home | Current Version | Previous Version | Text Only | Print | Product List | Glossary Off
Versions: 1 2 3 4 5 6 7 8 9 10 11 12 13 14 15 16 17 18 19 20 21 22 23 24 25 26 27 28 29 30 31 32 33 34 35 36 37 38 39 40 41 42 43 44 45 46 47 48 49 50

000
ASUS43 KMPX 212210
RWRMN
WEATHER ROUNDUP FOR MINNESOTA
NATIONAL WEATHER SERVICE TWIN CITIES/CHANHASSEN MN
500 PM CDT TUE OCT 21 2014


NOTE: "FAIR" INDICATES FEW OR NO CLOUDS BELOW 12,000 FEET WITH NO
SIGNIFICANT WEATHER AND/OR OBSTRUCTIONS TO VISIBILITY. N/A MEANS
CURRENT SKY AND/OR WEATHER CONDITIONS ARE NOT AVAILABLE.

MNZ060>063-068>070-212300-
   Twin Cities Metro

CITY           SKY/WX    TMP DP  RH WIND       PRES   REMARKS
TWIN CITIES    SUNNY     57  40  52 SE15      30.13F
ST PAUL        SUNNY     56  39  53 SE13      30.15F
CRYSTAL        SUNNY     58  39  49 SE14      30.12F
BLAINE         SUNNY     59  39  47 SE10      30.13F
LAKEVILLE      SUNNY     55  41  58 SE9       30.13S
EDEN PRAIRIE   SUNNY     58  41  53 SE13      30.12S
SOUTH ST PAUL  SUNNY     57  39  50 SE6       30.14F
LAKE ELMO      FAIR      55  41  58 SE9       30.16S
$$
MNZ001>005-007-008-013>017-022>024-027-028-212300-
   Northwest Minnesota

CITY           SKY/WX    TMP DP  RH WIND       PRES   REMARKS
BEMIDJI        SUNNY     55  38  54 SE14G23   30.03S
HALLOCK        SUNNY     64  39  39 SE24G31   29.85F
ROSEAU         SUNNY     57  41  54 SE16      29.94F
WARROAD        SUNNY     57  41  54 SE15G24   29.97F
THIEF RVR FALL SUNNY     61  39  44 SE21      29.92F
CROOKSTON      SUNNY     64  41  42 S26       29.90F
FOSSTON        SUNNY     63  37  39 SE16G24   29.95F
DETROIT LAKES  SUNNY     59  41  51 SE21G28   29.98S
MOORHEAD       SUNNY     66  37  34 SE28G33   29.92S
PARK RAPIDS    SUNNY     57  37  47 SE20      30.03S
MAHNOMEN       FAIR      59  39  47 SE22G29   29.95S
$$
MNZ006-009>011-018-025>026-212300-
   North Central Minnesota

CITY           SKY/WX    TMP DP  RH WIND       PRES   REMARKS
BAUDETTE       SUNNY     54  37  52 SE10G18   30.02S
FLAG ISLAND    SUNNY     52  39  62 SE15      29.98F
INTL FALLS     SUNNY     49  35  58 SE12G22   30.09F
WASKISH        SUNNY     54  39  58 SE15G23   30.03S
BIG FORK       SUNNY     52  36  54 SE12G18   30.10F
LONGVILLE      SUNNY     55  37  50 SE10      30.08S
GRAND RAPIDS   SUNNY     50  36  57 SE12G18   30.12S
CRANE LAKE     CLEAR     46  36  66 SE3         N/A
ORR            SUNNY     46  32  57 SE12G21   30.12S
COOK           SUNNY     46  36  66 SE12G17   30.15F
WALKER         FAIR      54  37  52 SE12G17   30.06R
$$
MNZ012-019>021-037-212300-
   Northeast Minnesota

CITY           SKY/WX    TMP DP  RH WIND       PRES   REMARKS
DULUTH         MOSUNNY   44  35  70 E14       30.18F
ELY            MOCLDY    41  34  75 SE10G16   30.19S
HIBBING        SUNNY     47  34  60 SE14      30.15F
EVELETH        SUNNY     43  34  70 SE9       30.18S
DULUTH HARBOR  SUNNY     46  39  76 NE20      30.21S
TWO HARBORS    CLOUDY    45  27  49 E12G17    30.21S
SILVER BAY     PTCLDY    43  36  75 E8        30.22S
GRAND MARAIS     N/A     43  33  68 E7        30.27F
G MARAIS ARPRT CLEAR     37  28  70 SE6       30.24F
$$
MNZ029>031-032-039>041-046>048-054>057-064-212300-
   West Central Minnesota

CITY           SKY/WX    TMP DP  RH WIND       PRES   REMARKS
FERGUS FALLS   SUNNY     63  37  39 SE21G30   29.97F
WHEATON        SUNNY     64  41  42 SE25G32   29.95S
MORRIS         SUNNY     64  43  45 SE21G29   29.98F
ALEXANDRIA     SUNNY     59  40  49 SE16G29   30.05R
ELBOW LAKE     FAIR      61  41  47 SE22G29   29.99S
WADENA         SUNNY     57  39  51 SE17      30.03F
GLENWOOD       SUNNY     61  41  48 SE18G25   30.05S
APPLETON       SUNNY     68  39  34 SE16G24   29.98F
BENSON         SUNNY     64  41  42 S20G25    30.01S
ORTONVILLE     SUNNY     70  39  32 SE18G25   29.95F
MADISON        SUNNY     73  39  29 SE20G25   29.97S
WILLMAR        FAIR      64  37  36 SE20G25   30.06S
$$
MNZ033>034-036-042>043-049>051-058-059-212300-
   Central Minnesota

CITY           SKY/WX    TMP DP  RH WIND       PRES   REMARKS
ST CLOUD       SUNNY     59  39  47 SE14G21   30.11S
SAUK CENTRE    FAIR      58  40  51 SE15G22   30.07R
PAYNESVILLE    SUNNY     57  40  53 E14       30.08S
AITKIN         SUNNY     57  37  47 SE9       30.10S
PINE RIVER     SUNNY     54  39  58 SE13G20   30.11S
BRAINERD       SUNNY     54  39  57 VRB6      30.10S
STAPLES        SUNNY     55  37  50 SE9G16    30.06S
LONG PRAIRIE   FAIR      55  37  50 E14G21    30.07S
LITTLE FALLS   SUNNY     55  36  47 SE12      30.09S
LITCHFIELD     SUNNY     61  43  51 SE18      30.09S
BUFFALO        SUNNY     57  39  50 SE8       30.12F
MAPLE LAKE     SUNNY     58  43  57 E7        30.11F
$$
MNZ037-044-045-052-053-212300-
   East Central Minnesota

CITY           SKY/WX    TMP DP  RH WIND       PRES   REMARKS
PRINCETON      SUNNY     57  39  51 E12       30.12F
MORA           SUNNY     54  36  50 SE7       30.15S
CAMBRIDGE      SUNNY     57  41  54 E10G16    30.12S
RUSH CITY      MOSUNNY   56  38  51 SE8       30.14F
MOOSE LAKE     SUNNY     54  34  47 SE7       30.13F
HINCKLEY       FAIR      55  36  47 E9        30.14F
CLOQUET        SUNNY     46  36  66 E13       30.17S
MCGREGOR       SUNNY     54  36  50 SE13      30.13S
$$
MNZ071>073-080-081-089-090-097-098-212300-
   Southwest Minnesota

CITY           SKY/WX    TMP DP  RH WIND       PRES   REMARKS
MONTEVIDEO     SUNNY     66  39  37 S18G26    30.01S
GRANITE FALLS  SUNNY     67  40  37 SE17G23   30.03S
CANBY          SUNNY     73  41  32 SE13G24   29.98S
MARSHALL       SUNNY     72  41  33 S17       29.99S
REDWOOD FALLS  SUNNY     67  39  35 SE18      30.04S
OLIVIA         SUNNY     64  41  42 SE15G23   30.04F
PIPESTONE      SUNNY     72  39  30 S16       30.00S
WINDOM         SUNNY     66  39  37 SE13      30.06R
WORTHINGTON    SUNNY     70  39  32 SE12G17   30.05S
JACKSON        SUNNY     66  37  34 SE13      30.07S
TRACY          SUNNY     69  42  37 SE16      30.02S
SLAYTON        SUNNY     70  38  31 SE13      30.03S
$$
MNZ065>067-074>077-082>085-091>093-212300-
   South Central Minnesota

CITY           SKY/WX    TMP DP  RH WIND       PRES   REMARKS
MANKATO        SUNNY     63  37  39 SE13      30.11R
NEW ULM        SUNNY     64  43  45 SE12      30.07F
ST JAMES       SUNNY     66  39  37 SE13G18   30.09R
FAIRMONT       SUNNY     64  37  36 SE15      30.09S
GLENCOE        SUNNY     62  44  50 SE14      30.09F
FARIBAULT      SUNNY     61  43  51 E9G16     30.13S
OWATONNA       SUNNY     61  39  44 SE12G17   30.13S
WASECA         SUNNY     59  34  38 SE9G17    30.14R
ALBERT LEA     SUNNY     61  39  44 SE14      30.13R
$$
MNZ078>079-086>088-094>096-212300-
   Southeast Minnesota

CITY           SKY/WX    TMP DP  RH WIND       PRES   REMARKS
ROCHESTER      SUNNY     55  40  56 SE12      30.17S
RED WING       SUNNY     57  37  47 S8        30.15F
STANTON        SUNNY     58  41  51 SE7       30.13S
DODGE CENTER   SUNNY     57  41  54 SE10      30.14F
WINONA         SUNNY     55  39  54 SE8       30.19S
AUSTIN         SUNNY     57  41  54 SE10      30.14S
PRESTON        SUNNY     55  38  52 SE7       30.17S
$$
ABBREVIATIONS USED IN REMARKS
   TC - TEMPERATURES IN CELSIUS
  WCI - WIND CHILL INDEX
   HX - HEAT INDEX
  VSB - VISIBILITY
$$



USA.gov is the U.S. government's official web portal to all federal, state and local government web resources and services.